カタログに戻る

CZ-6A DEB

運用中SSO
NORAD 54447·DEBRIS·🇨🇳 China

打ち上げ Nov 11, 2022 から Taiyuan Satellite Launch Center

Loading…

次のパス (今後24時間)

TLE

最新Source: Space-Track

元期: Sep 13, 2026, 19:37 UTC

1 54447U 22151FX  26256.81750247  .00000184  00000-0  18071-3 0  9993
2 54447  98.9734 209.5142 0167987 265.2788  92.9167 13.84914283193678

AllMySatでCZ-6A DEBをリアルタイム追跡

Download on the App Store